Weather History for Montrose, CO

Change the Weather History Date:

Saturday, August 18, 2012

  Actual Average Record
Temperature  
Mean Temperature 74 °F 70 °F  
Max Temperature 91 °F 86 °F 95 °F (2011)
Min Temperature 57 °F 56 °F 51 °F (2001)
Degree Days  
Heating Degree Days 0 0  
Month to date heating degree days 0 0  
Since 1 June heating degree days 6 39  
Since 1 July heating degree days 0 0  
Cooling Degree Days 9 6  
Month to date cooling degree days 164 127  
Year to date cooling degree days 766 549  
Since 1 June cooling degree days 743 532  
Growing Degree Days 24 (Base 50)    
Moisture  
Dew Point 42 °F    
Average Humidity 40    
Maximum Humidity 67    
Minimum Humidity 13    
Precipitation  
Precipitation 0.00 in 0.04 in 0.01 in (1998)
Month to date precipitation 0.10 0.74  
Year to date precipitation 3.41 6.81  
Sea Level Pressure  
Sea Level Pressure 29.88 in    
Wind  
Wind Speed 7 mph (WSW)    
Max Wind Speed 13 mph    
Max Gust Speed 15 mph    
Visibility 10 miles    
Events      
T = Trace of Precipitation, MM = Missing Value Source: NWS Daily Summary

Daily Weather History Graph

Daily Weather History Graph

Search for Another Location

Airport:

Trip Planner

Search our weather history database for the weather conditions in past years. The results will help you decide how hot, cold, wet, or windy it might be!

Date:

Astronomy

Aug. 18, 2012 Rise Set
Actual Time 6:29 AM MDT 8:00 PM MDT
Civil Twilight 6:00 AM MDT 8:28 PM MDT
Nautical Twilight 5:27 AM MDT 9:02 PM MDT
Astronomical Twilight 4:51 AM MDT 9:37 PM MDT
Moon 7:38 AM MDT (8/18) 8:20 PM MDT (8/18)
Length of Visible Light 14h 27m
Length of Day
13h 31m
New Moon, 1% of the Moon is Illuminated
Aug 18
New Moon
Aug 24
First Quarter
Aug 31
Full
Sep 8
Last Quarter
Sep 15
New

Hourly Weather History & Observations

Time (MDT) Temp. Dew Point Humidity Pressure Visibility Wind Dir Wind Speed Gust Speed Precip Events Conditions
12:53 AM 70.0 °F 44.1 °F 39% 29.88 in 10.0 mi SE 4.6 mph - N/A   Clear
1:53 AM 69.1 °F 44.1 °F 40% 29.88 in 10.0 mi SE 11.5 mph - N/A   Clear
2:53 AM 66.0 °F 43.0 °F 43% 29.90 in 10.0 mi SE 8.1 mph - N/A   Clear
3:53 AM 64.0 °F 45.0 °F 50% 29.91 in 10.0 mi Calm Calm - N/A   Clear
4:53 AM 59.0 °F 44.1 °F 58% 29.93 in 10.0 mi South 5.8 mph - N/A   Clear
6:53 AM 57.9 °F 45.0 °F 62% 29.96 in 10.0 mi SSE 10.4 mph - N/A   Clear
7:53 AM 62.1 °F 46.0 °F 56% 29.97 in 10.0 mi SSE 6.9 mph - N/A   Clear
8:53 AM 71.1 °F 46.0 °F 41% 29.96 in 10.0 mi ESE 4.6 mph - N/A   Clear
9:53 AM 73.0 °F 46.0 °F 38% 29.96 in 10.0 mi NNW 4.6 mph - N/A   Clear
10:53 AM 78.1 °F 46.9 °F 33% 29.95 in 10.0 mi North 6.9 mph - N/A   Clear
11:53 AM 81.0 °F 46.0 °F 29% 29.91 in 10.0 mi North 5.8 mph - N/A   Clear
12:53 PM 84.9 °F 42.1 °F 22% 29.88 in 10.0 mi NNW 6.9 mph - N/A   Clear
1:53 PM 87.1 °F 43.0 °F 21% 29.85 in 10.0 mi North 9.2 mph - N/A   Clear
2:53 PM 88.0 °F 39.9 °F 18% 29.83 in 10.0 mi West 8.1 mph - N/A   Clear
3:53 PM 91.0 °F 37.0 °F 15% 29.81 in 10.0 mi WNW 10.4 mph - N/A   Clear
4:53 PM 90.0 °F 34.0 °F 14% 29.81 in 10.0 mi WNW 8.1 mph - N/A   Clear
5:53 PM 90.0 °F 32.0 °F 13% 29.79 in 10.0 mi WNW 5.8 mph - N/A   Clear
6:53 PM 88.0 °F 37.0 °F 16% 29.79 in 10.0 mi WNW 9.2 mph - N/A   Clear
7:53 PM 82.0 °F 39.0 °F 22% 29.81 in 10.0 mi WNW 8.1 mph - N/A   Clear
8:53 PM 75.9 °F 36.0 °F 23% 29.82 in 6.0 mi NW 6.9 mph - N/A   Haze
9:53 PM 70.0 °F 37.9 °F 31% 29.85 in 10.0 mi South 3.5 mph - N/A   Clear
10:53 PM 66.0 °F 41.0 °F 40% 29.87 in 10.0 mi SSE 8.1 mph - N/A   Clear
11:53 PM 63.0 °F 39.9 °F 43% 29.88 in 10.0 mi SSE 5.8 mph - N/A   Clear